Simultaneous Nadir Overpasses (SNOs) Predictions

Prediction of SNOs between GOES-15 and METOP-B Satellite Orbit:

Table of predicted SNOs for the next 14.0 days since TLE Epoch: 6/4/2022
Index Date Time (GOES-15) GOES-15 Lat,Lon METOP-B Lat,Lon Distance(km) Time Diff (sec)
1 06/04/2022 05:45:44 0.23,-128.09 1.05,-124.39 421.31 80
2 06/05/2022 18:07:16 -0.22,-128.16 -0.06,-128.96 91.01 80
3 06/06/2022 17:43:57 -0.23,-128.19 -1.20,-123.98 480.31 80
4 06/08/2022 06:05:38 0.22,-128.19 0.13,-128.57 43.01 80
5 06/10/2022 18:03:50 -0.22,-128.27 -0.23,-128.14 15.05 80
6 06/13/2022 05:59:33 0.22,-128.28 0.37,-127.75 61.10 80
7 06/14/2022 18:21:05 -0.20,-128.33 0.68,-132.31 453.85 80
8 06/15/2022 17:57:46 -0.22,-128.34 -0.47,-127.33 115.84 80
9 06/17/2022 06:19:26 0.21,-128.32 -0.59,-131.92 409.14 80
